QPF
0.01 0.01 0.01 0.01 0.02 0.02 0.02 0.02 0.02 0.02 0.03 0.03 0.04 0.04 0.05 0.06 0.06 0.05 0.04 0.03 0.04 0.04 0.03 0.03 0.03 0.04 0.04 0.04 0.03 0.03 0.02 0.02 0.02 0.01 0.01 0.01 0.01 0.01 0.01 0.02 0.02 0.02 0.02
0.01 0.01 0.01 0.02 0.02 0.03 0.03 0.03 0.03 0.03 0.03 0.04 0.04 0.05 0.05 0.06 0.07 0.06 0.05 0.04 0.03 0.03 0.03 0.03 0.03 0.03 0.03 0.03 0.03 0.02 0.02 0.02 0.02 0.02 0.01 0.01 0.00 0.00 0.00 0.01 0.01 0.01 0.01
0.01 0.01 0.01 0.01 0.02 0.03 0.04 0.05 0.04 0.04 0.04 0.06 0.06 0.06 0.06 0.06 0.07 0.07 0.06 0.04 0.03 0.03 0.03 0.03 0.03 0.03 0.03 0.02 0.02 0.02 0.02 0.02 0.02 0.02 0.01 0.01 0.01 0.01 0.01 0.01 0.01 0.01 0.01
0.01 0.01 0.01 0.01 0.02 0.02 0.03 0.05 0.05 0.05 0.05 0.05 0.05 0.05 0.06 0.06 0.07 0.08 0.07 0.05 0.04 0.03 0.03 0.03 0.03 0.03 0.03 0.03 0.03 0.03 0.02 0.02 0.02 0.02 0.02 0.01 0.01 0.01 0.01 0.01 0.01 0.01 0.01
0.00 0.00 0.01 0.01 0.01 0.02 0.02 0.03 0.04 0.05 0.05 0.05 0.05 0.05 0.05 0.05 0.05 0.06 0.07 0.05 0.04 0.03 0.03 0.03 0.03 0.03 0.03 0.03 0.04 0.04 0.04 0.04 0.04 0.03 0.03 0.02 0.02 0.02 0.02 0.01 0.01 0.01 0.01
0.01 0.00 0.00 0.01 0.01 0.01 0.02 0.02 0.03 0.03 0.04 0.05 0.05 0.05 0.05 0.05 0.05 0.05 0.05 0.05 0.04 0.03 0.03 0.02 0.02 0.03 0.03 0.04 0.04 0.04 0.04 0.05 0.05 0.04 0.03 0.03 0.02 0.02 0.02 0.02 0.02 0.02 0.02
0.01 0.01 0.01 0.00 0.01 0.01 0.01 0.02 0.02 0.02 0.02 0.03 0.04 0.04 0.05 0.05 0.05 0.05 0.04 0.04 0.04 0.04 0.03 0.02 0.02 0.02 0.02 0.03 0.04 0.05 0.05 0.05 0.05 0.04 0.04 0.03 0.03 0.02 0.03 0.03 0.03 0.03 0.02
0.01 0.00 0.00 0.00 0.00 0.00 0.01 0.01 0.01 0.02 0.02 0.02 0.02 0.03 0.03 0.04 0.05 0.05 0.06 0.05 0.04 0.04 0.03 0.02 0.03 0.03 0.03 0.03 0.04 0.04 0.04 0.04 0.04 0.04 0.05 0.04 0.04 0.04 0.04 0.04 0.04 0.04 0.03
0.01 0.00 0.00 0.00 0.00 0.00 0.01 0.01 0.01 0.01 0.01 0.02 0.02 0.03 0.03 0.04 0.05 0.05 0.06 0.06 0.05 0.05 0.04 0.04 0.03 0.03 0.04 0.04 0.04 0.04 0.04 0.03 0.04 0.04 0.04 0.04 0.04 0.04 0.04 0.04 0.05 0.05 0.04
0.01 0.01 0.00 0.00 0.00 0.00 0.01 0.01 0.01 0.01 0.01 0.01 0.02 0.03 0.04 0.04 0.06 0.07 0.07 0.06 0.05 0.05 0.05 0.05 0.06 0.05 0.05 0.05 0.05 0.05 0.04 0.04 0.03 0.04 0.04 0.04 0.04 0.04 0.03 0.03 0.04 0.05 0.04
0.02 0.02 0.01 0.01 0.01 0.01 0.01 0.01 0.01 0.01 0.01 0.01 0.02 0.03 0.04 0.05 0.05 0.06 0.07 0.06 0.06 0.05 0.05 0.06 0.06 0.06 0.06 0.06 0.06 0.06 0.05 0.04 0.04 0.04 0.05 0.04 0.04 0.04 0.04 0.03 0.04 0.04 0.04
0.02 0.02 0.02 0.02 0.02 0.02 0.01 0.01 0.01 0.01 0.01 0.02 0.02 0.03 0.03 0.04 0.04 0.05 0.06 0.08 0.07 0.06 0.05 0.05 0.06 0.06 0.06 0.07 0.07 0.07 0.06 0.05 0.06 0.05 0.05 0.04 0.04 0.04 0.04 0.03 0.03 0.03 0.03
0.01 0.01 0.01 0.01 0.02 0.02 0.02 0.02 0.02 0.02 0.02 0.02 0.02 0.03 0.03 0.04 0.04 0.05 0.05 0.07 0.08 0.07 0.06 0.06 0.05 0.05 0.05 0.06 0.07 0.06 0.06 0.06 0.06 0.05 0.04 0.03 0.03 0.04 0.04 0.04 0.04 0.03 0.03
0.00 0.01 0.01 0.01 0.01 0.01 0.02 0.02 0.03 0.03 0.03 0.03 0.03 0.03 0.03 0.03 0.04 0.04 0.05 0.06 0.07 0.08 0.08 0.07 0.06 0.05 0.05 0.05 0.05 0.05 0.04 0.04 0.04 0.04 0.04 0.03 0.03 0.04 0.04 0.03 0.03 0.03 0.03
0.00 0.00 0.01 0.01 0.01 0.01 0.01 0.02 0.02 0.03 0.04 0.04 0.04 0.04 0.04 0.04 0.05 0.05 0.05 0.05 0.06 0.06 0.06 0.06 0.06 0.05 0.05 0.04 0.04 0.04 0.03 0.03 0.03 0.03 0.03 0.03 0.03 0.03 0.03 0.02 0.02 0.02 0.02
0.01 0.01 0.01 0.01 0.01 0.01 0.01 0.02 0.02 0.03 0.03 0.03 0.04 0.04 0.04 0.04 0.04 0.05 0.04 0.04 0.05 0.05 0.05 0.05 0.04 0.04 0.03 0.03 0.03 0.03 0.03 0.03 0.03 0.03 0.03 0.03 0.03 0.03 0.03 0.02 0.02 0.02 0.02
0.01 0.01 0.01 0.01 0.01 0.01 0.01 0.01 0.02 0.02 0.02 0.02 0.03 0.03 0.03 0.03 0.03 0.03 0.03 0.03 0.03 0.03 0.03 0.03 0.02 0.02 0.02 0.02 0.02 0.02 0.02 0.02 0.03 0.03 0.03 0.03 0.03 0.03 0.03 0.03 0.02 0.02 0.02
0.01 0.01 0.01 0.01 0.01 0.01 0.01 0.01 0.01 0.01 0.01 0.01 0.01 0.02 0.02 0.02 0.02 0.02 0.02 0.02 0.02 0.02 0.02 0.01 0.01 0.01 0.01 0.01 0.01 0.02 0.02 0.02 0.03 0.03 0.03 0.03 0.03 0.03 0.03 0.03 0.02 0.02 0.02
0.01 0.01 0.01 0.01 0.01 0.01 0.01 0.01 0.01 0.01 0.01 0.01 0.01 0.01 0.01 0.01 0.01 0.02 0.02 0.02 0.01 0.01 0.01 0.01 0.01 0.01 0.01 0.01 0.01 0.01 0.02 0.02 0.03 0.03 0.03 0.03 0.03 0.03 0.03 0.03 0.02 0.02 0.02
0.01 0.01 0.01 0.01 0.01 0.01 0.01 0.01 0.01 0.01 0.01 0.01 0.01 0.01 0.01 0.01 0.01 0.01 0.01 0.01 0.01 0.01 0.01 0.01 0.01 0.01 0.01 0.01 0.01 0.01 0.01 0.02 0.02 0.03 0.03 0.03 0.03 0.03 0.03 0.03 0.03 0.03 0.02
0.01 0.01 0.01 0.01 0.01 0.01 0.01 0.01 0.01 0.01 0.01 0.01 0.01 0.01 0.01 0.01 0.01 0.01 0.01 0.01 0.01 0.01 0.01 0.01 0.01 0.01 0.01 0.01 0.01 0.01 0.02 0.02 0.02 0.02 0.02 0.02 0.03 0.03 0.03 0.03 0.03 0.02 0.02
0.01 0.01 0.01 0.01 0.01 0.01 0.01 0.01 0.01 0.01 0.01 0.01 0.01 0.01 0.01 0.01 0.01 0.01 0.01 0.01 0.01 0.01 0.01 0.01 0.01 0.02 0.02 0.02 0.02 0.02 0.02 0.02 0.02 0.02 0.02 0.02 0.02 0.02 0.02 0.02 0.02 0.02 0.02
0.01 0.01 0.01 0.01 0.01 0.01 0.01 0.01 0.01 0.01 0.01 0.01 0.01 0.01 0.01 0.01 0.01 0.01 0.01 0.01 0.01 0.01 0.01 0.01 0.02 0.02 0.02 0.02 0.02 0.02 0.02 0.01 0.01 0.02 0.02 0.02 0.02 0.02 0.02 0.02 0.01 0.02 0.02
0.01 0.01 0.01 0.01 0.01 0.01 0.01 0.01 0.01 0.01 0.01 0.01 0.01 0.01 0.01 0.01 0.01 0.01 0.01 0.01 0.01 0.01 0.01 0.01 0.01 0.01 0.01 0.01 0.01 0.01 0.01 0.01 0.02 0.02 0.02 0.02 0.02 0.01 0.01 0.01 0.01 0.01 0.01
0.01 0.01 0.01 0.01 0.01 0.01 0.01 0.01 0.01 0.01 0.01 0.01 0.01 0.01 0.01 0.01 0.01 0.01 0.01 0.01 0.01 0.01 0.01 0.01 0.01 0.01 0.01 0.01 0.01 0.01 0.01 0.01 0.02 0.02 0.02 0.02 0.02 0.01 0.01 0.01 0.01 0.01 0.01
0.02 0.02 0.02 0.02 0.01 0.01 0.01 0.01 0.01 0.01 0.01 0.01 0.01 0.01 0.01 0.01 0.01 0.01 0.01 0.01 0.01 0.01 0.01 0.01 0.01 0.01 0.01 0.01 0.01 0.01 0.02 0.02 0.01 0.02 0.02 0.02 0.02 0.02 0.01 0.02 0.02 0.01 0.01
MSLP
1024.99 1025.13 1025.19 1025.15 1024.99 1024.71 1024.31 1023.82 1023.25 1022.62 1021.96 1021.28 1020.59 1019.92 1019.26 1018.62 1018.02 1017.47 1016.96 1016.52 1016.13 1015.78 1015.45 1015.13 1014.79 1014.42 1014.01 1013.57 1013.10 1012.64 1012.22 1011.85 1011.57 1011.37 1011.24 1011.18 1011.14 1011.09 1011.01 1010.88 1010.68 1010.43 1010.13
1024.77 1024.94 1025.04 1025.05 1024.95 1024.74 1024.42 1024.01 1023.51 1022.96 1022.36 1021.73 1021.09 1020.44 1019.82 1019.22 1018.65 1018.14 1017.69 1017.29 1016.96 1016.66 1016.37 1016.08 1015.75 1015.38 1014.95 1014.47 1013.97 1013.46 1012.98 1012.56 1012.22 1011.97 1011.79 1011.67 1011.57 1011.47 1011.32 1011.12 1010.85 1010.50 1010.11
1024.43 1024.64 1024.79 1024.85 1024.82 1024.70 1024.47 1024.15 1023.75 1023.28 1022.76 1022.20 1021.62 1021.03 1020.44 1019.87 1019.34 1018.86 1018.43 1018.07 1017.74 1017.46 1017.18 1016.89 1016.56 1016.17 1015.73 1015.24 1014.72 1014.19 1013.70 1013.27 1012.92 1012.64 1012.45 1012.30 1012.16 1012.00 1011.80 1011.52 1011.16 1010.72 1010.22
1024.02 1024.27 1024.47 1024.60 1024.65 1024.61 1024.48 1024.26 1023.96 1023.59 1023.16 1022.69 1022.18 1021.65 1021.11 1020.58 1020.08 1019.61 1019.19 1018.82 1018.49 1018.19 1017.89 1017.58 1017.23 1016.83 1016.38 1015.89 1015.38 1014.87 1014.40 1013.99 1013.65 1013.39 1013.18 1013.02 1012.86 1012.66 1012.40 1012.05 1011.61 1011.09 1010.49
1023.60 1023.90 1024.15 1024.34 1024.47 1024.51 1024.48 1024.36 1024.17 1023.91 1023.58 1023.19 1022.76 1022.30 1021.81 1021.32 1020.83 1020.38 1019.95 1019.56 1019.20 1018.86 1018.53 1018.18 1017.80 1017.39 1016.94 1016.46 1015.97 1015.50 1015.06 1014.69 1014.38 1014.14 1013.95 1013.77 1013.59 1013.36 1013.05 1012.65 1012.15 1011.56 1010.89
1023.25 1023.59 1023.89 1024.14 1024.33 1024.45 1024.51 1024.49 1024.39 1024.23 1024.00 1023.70 1023.35 1022.95 1022.51 1022.05 1021.59 1021.13 1020.69 1020.27 1019.87 1019.49 1019.12 1018.73 1018.33 1017.90 1017.45 1016.98 1016.52 1016.08 1015.69 1015.35 1015.07 1014.84 1014.66 1014.48 1014.28 1014.02 1013.68 1013.25 1012.72 1012.09 1011.38
1023.01 1023.39 1023.73 1024.03 1024.28 1024.47 1024.60 1024.65 1024.64 1024.56 1024.42 1024.20 1023.91 1023.57 1023.18 1022.76 1022.31 1021.85 1021.40 1020.95 1020.52 1020.10 1019.68 1019.26 1018.83 1018.39 1017.95 1017.49 1017.06 1016.65 1016.28 1015.96 1015.69 1015.47 1015.27 1015.07 1014.86 1014.58 1014.23 1013.79 1013.25 1012.62 1011.92
1022.93 1023.34 1023.71 1024.05 1024.34 1024.57 1024.75 1024.87 1024.92 1024.90 1024.82 1024.66 1024.44 1024.15 1023.80 1023.40 1022.97 1022.52 1022.06 1021.59 1021.14 1020.69 1020.24 1019.80 1019.35 1018.91 1018.46 1018.02 1017.60 1017.20 1016.84 1016.52 1016.24 1015.99 1015.77 1015.55 1015.30 1015.01 1014.66 1014.23 1013.72 1013.13 1012.47
1022.98 1023.41 1023.81 1024.17 1024.48 1024.75 1024.96 1025.11 1025.20 1025.22 1025.18 1025.07 1024.89 1024.64 1024.32 1023.95 1023.54 1023.10 1022.65 1022.18 1021.72 1021.26 1020.81 1020.36 1019.91 1019.47 1019.02 1018.59 1018.17 1017.76 1017.39 1017.05 1016.74 1016.45 1016.18 1015.92 1015.64 1015.33 1014.98 1014.57 1014.11 1013.58 1013.00
1023.11 1023.56 1023.97 1024.35 1024.67 1024.95 1025.18 1025.34 1025.45 1025.50 1025.48 1025.40 1025.25 1025.02 1024.74 1024.40 1024.02 1023.60 1023.17 1022.72 1022.27 1021.83 1021.38 1020.95 1020.51 1020.07 1019.64 1019.21 1018.78 1018.36 1017.96 1017.58 1017.21 1016.87 1016.54 1016.22 1015.91 1015.57 1015.22 1014.84 1014.42 1013.96 1013.46
1023.27 1023.73 1024.15 1024.53 1024.86 1025.14 1025.37 1025.54 1025.66 1025.71 1025.71 1025.64 1025.51 1025.31 1025.05 1024.74 1024.39 1024.01 1023.61 1023.20 1022.79 1022.38 1021.97 1021.56 1021.15 1020.74 1020.31 1019.88 1019.45 1019.01 1018.57 1018.13 1017.71 1017.30 1016.91 1016.53 1016.16 1015.80 1015.43 1015.06 1014.68 1014.27 1013.82
1023.39 1023.85 1024.27 1024.65 1024.99 1025.27 1025.50 1025.68 1025.80 1025.86 1025.86 1025.80 1025.68 1025.50 1025.27 1025.00 1024.69 1024.36 1024.01 1023.65 1023.29 1022.93 1022.57 1022.21 1021.84 1021.45 1021.05 1020.62 1020.18 1019.71 1019.23 1018.75 1018.27 1017.79 1017.32 1016.88 1016.45 1016.04 1015.65 1015.27 1014.89 1014.50 1014.08
1023.44 1023.89 1024.31 1024.70 1025.04 1025.33 1025.56 1025.74 1025.87 1025.94 1025.95 1025.90 1025.79 1025.64 1025.44 1025.20 1024.94 1024.66 1024.37 1024.08 1023.79 1023.50 1023.20 1022.90 1022.57 1022.22 1021.84 1021.42 1020.96 1020.48 1019.96 1019.43 1018.88 1018.34 1017.81 1017.29 1016.80 1016.34 1015.90 1015.48 1015.07 1014.66 1014.23
1023.40 1023.84 1024.27 1024.66 1025.01 1025.31 1025.56 1025.76 1025.90 1025.98 1026.00 1025.97 1025.88 1025.75 1025.58 1025.38 1025.17 1024.95 1024.74 1024.52 1024.31 1024.09 1023.86 1023.62 1023.34 1023.03 1022.67 1022.27 1021.80 1021.29 1020.74 1020.16 1019.56 1018.96 1018.36 1017.78 1017.22 1016.68 1016.18 1015.70 1015.23 1014.77 1014.29
1023.30 1023.73 1024.15 1024.55 1024.91 1025.24 1025.52 1025.74 1025.91 1026.01 1026.05 1026.04 1025.97 1025.87 1025.73 1025.58 1025.42 1025.27 1025.12 1024.98 1024.85 1024.71 1024.56 1024.37 1024.15 1023.88 1023.54 1023.14 1022.66 1022.13 1021.55 1020.93 1020.28 1019.62 1018.96 1018.31 1017.69 1017.08 1016.51 1015.95 1015.40 1014.85 1014.28
1023.17 1023.58 1023.99 1024.40 1024.79 1025.15 1025.46 1025.71 1025.91 1026.04 1026.11 1026.12 1026.08 1026.01 1025.91 1025.80 1025.69 1025.60 1025.53 1025.46 1025.41 1025.34 1025.26 1025.14 1024.96 1024.72 1024.40 1023.99 1023.51 1022.96 1022.34 1021.68 1020.99 1020.28 1019.57 1018.87 1018.18 1017.51 1016.86 1016.22 1015.58 1014.94 1014.27
1023.03 1023.42 1023.83 1024.24 1024.65 1025.04 1025.39 1025.68 1025.91 1026.08 1026.18 1026.22 1026.20 1026.15 1026.09 1026.02 1025.97 1025.93 1025.92 1025.93 1025.95 1025.96 1025.94 1025.87 1025.73 1025.51 1025.20 1024.79 1024.29 1023.71 1023.06 1022.37 1021.64 1020.89 1020.14 1019.40 1018.67 1017.95 1017.23 1016.52 1015.80 1015.06 1014.29
1022.89 1023.26 1023.66 1024.08 1024.51 1024.92 1025.30 1025.63 1025.90 1026.09 1026.22 1026.28 1026.30 1026.27 1026.24 1026.21 1026.21 1026.23 1026.28 1026.35 1026.44 1026.51 1026.54 1026.51 1026.41 1026.20 1025.89 1025.47 1024.95 1024.34 1023.67 1022.94 1022.18 1021.41 1020.64 1019.87 1019.11 1018.36 1017.60 1016.84 1016.05 1015.24 1014.39
1022.74 1023.09 1023.48 1023.90 1024.34 1024.78 1025.18 1025.54 1025.83 1026.05 1026.20 1026.29 1026.32 1026.33 1026.32 1026.33 1026.37 1026.43 1026.54 1026.67 1026.81 1026.93 1027.01 1027.02 1026.93 1026.73 1026.42 1025.99 1025.45 1024.81 1024.11 1023.36 1022.59 1021.80 1021.02 1020.24 1019.48 1018.72 1017.95 1017.16 1016.34 1015.48 1014.57
1022.58 1022.89 1023.27 1023.68 1024.12 1024.57 1024.98 1025.36 1025.67 1025.91 1026.08 1026.18 1026.24 1026.27 1026.29 1026.33 1026.40 1026.52 1026.67 1026.85 1027.03 1027.19 1027.30 1027.33 1027.26 1027.06 1026.74 1026.30 1025.74 1025.08 1024.36 1023.60 1022.82 1022.04 1021.27 1020.51 1019.76 1019.02 1018.26 1017.48 1016.65 1015.78 1014.84
1022.36 1022.65 1023.01 1023.41 1023.83 1024.27 1024.69 1025.06 1025.38 1025.63 1025.82 1025.94 1026.02 1026.07 1026.12 1026.20 1026.31 1026.46 1026.65 1026.86 1027.07 1027.26 1027.39 1027.44 1027.37 1027.18 1026.85 1026.39 1025.82 1025.15 1024.43 1023.67 1022.89 1022.13 1021.38 1020.66 1019.95 1019.24 1018.52 1017.77 1016.97 1016.10 1015.16
1022.11 1022.37 1022.69 1023.06 1023.46 1023.88 1024.28 1024.65 1024.97 1025.22 1025.42 1025.56 1025.66 1025.74 1025.82 1025.93 1026.07 1026.26 1026.47 1026.71 1026.95 1027.16 1027.30 1027.35 1027.28 1027.08 1026.75 1026.28 1025.71 1025.05 1024.33 1023.58 1022.83 1022.10 1021.39 1020.71 1020.05 1019.40 1018.73 1018.02 1017.26 1016.43 1015.52
1021.84 1022.05 1022.33 1022.66 1023.02 1023.40 1023.78 1024.13 1024.44 1024.70 1024.90 1025.06 1025.18 1025.30 1025.42 1025.55 1025.73 1025.94 1026.18 1026.44 1026.69 1026.90 1027.04 1027.08 1027.02 1026.81 1026.48 1026.02 1025.46 1024.81 1024.12 1023.40 1022.69 1021.99 1021.34 1020.71 1020.11 1019.51 1018.90 1018.25 1017.54 1016.75 1015.88
1021.58 1021.75 1021.97 1022.24 1022.56 1022.89 1023.23 1023.55 1023.85 1024.10 1024.31 1024.49 1024.65 1024.79 1024.94 1025.11 1025.32 1025.55 1025.80 1026.07 1026.32 1026.53 1026.67 1026.71 1026.64 1026.44 1026.11 1025.67 1025.13 1024.52 1023.86 1023.18 1022.52 1021.88 1021.27 1020.70 1020.15 1019.61 1019.05 1018.45 1017.80 1017.07 1016.24
1021.41 1021.51 1021.67 1021.88 1022.14 1022.41 1022.71 1022.99 1023.26 1023.51 1023.72 1023.92 1024.10 1024.27 1024.45 1024.65 1024.87 1025.12 1025.38 1025.65 1025.89 1026.09 1026.22 1026.26 1026.19 1026.01 1025.71 1025.29 1024.79 1024.22 1023.62 1023.00 1022.39 1021.80 1021.24 1020.72 1020.22 1019.73 1019.22 1018.67 1018.07 1017.39 1016.62
1021.38 1021.42 1021.51 1021.65 1021.83 1022.04 1022.28 1022.52 1022.75 1022.98 1023.19 1023.39 1023.59 1023.78 1023.98 1024.19 1024.43 1024.68 1024.94 1025.20 1025.43 1025.62 1025.74 1025.79 1025.73 1025.57 1025.30 1024.93 1024.49 1023.98 1023.44 1022.88 1022.33 1021.80 1021.29 1020.82 1020.35 1019.90 1019.43 1018.92 1018.36 1017.74 1017.03
Thickness
5517 5517 5516 5516 5515 5514 5513 5513 5512 5510 5508 5507 5505 5504 5502 5501 5500 5497 5496 5494 5492 5490 5488 5486 5484 5482 5480 5478 5475 5471 5468 5465 5462 5462 5459 5457 5453 5450 5448 5445 5442 5439 5436
5509 5508 5508 5508 5507 5507 5506 5506 5504 5503 5501 5500 5498 5497 5495 5494 5492 5490 5489 5487 5485 5483 5481 5480 5478 5476 5473 5470 5467 5464 5462 5459 5456 5453 5452 5448 5446 5443 5440 5437 5434 5431 5429
5500 5500 5499 5499 5498 5498 5497 5497 5496 5495 5494 5492 5491 5490 5489 5487 5486 5483 5482 5480 5478 5476 5474 5473 5471 5468 5466 5464 5460 5457 5454 5452 5448 5445 5443 5440 5437 5435 5431 5429 5426 5423 5421
5491 5490 5490 5490 5489 5489 5488 5487 5487 5486 5486 5485 5484 5483 5481 5480 5478 5476 5475 5473 5471 5469 5467 5466 5464 5462 5460 5456 5453 5450 5447 5443 5440 5437 5434 5432 5428 5425 5422 5419 5417 5415 5413
5481 5481 5481 5480 5480 5479 5478 5478 5478 5477 5476 5475 5475 5474 5473 5472 5470 5468 5467 5466 5464 5462 5460 5458 5457 5454 5452 5449 5446 5442 5439 5435 5432 5428 5426 5423 5420 5416 5413 5411 5407 5406 5404
5471 5471 5471 5471 5470 5469 5468 5468 5467 5467 5466 5465 5465 5464 5463 5463 5462 5461 5459 5457 5456 5454 5452 5450 5448 5445 5443 5440 5438 5435 5432 5428 5425 5422 5419 5416 5414 5409 5405 5400 5396 5394 5394
5462 5462 5461 5461 5460 5459 5458 5457 5457 5456 5456 5456 5455 5454 5454 5453 5453 5452 5450 5448 5447 5445 5443 5441 5439 5436 5434 5431 5429 5426 5423 5420 5418 5415 5412 5409 5405 5401 5395 5391 5387 5384 5383
5451 5451 5451 5450 5450 5449 5448 5447 5447 5447 5446 5446 5445 5444 5444 5443 5442 5441 5440 5438 5436 5434 5433 5431 5429 5426 5424 5421 5418 5416 5413 5411 5408 5405 5402 5400 5396 5392 5387 5383 5378 5374 5372
5440 5439 5439 5439 5439 5438 5438 5437 5437 5436 5436 5435 5434 5433 5432 5431 5431 5430 5429 5426 5424 5423 5421 5419 5417 5415 5414 5411 5408 5405 5403 5400 5397 5394 5391 5387 5385 5381 5376 5371 5365 5361 5360
5428 5427 5426 5427 5427 5427 5426 5426 5425 5425 5424 5423 5422 5421 5420 5419 5419 5418 5416 5414 5412 5411 5410 5408 5407 5405 5403 5400 5397 5394 5392 5389 5385 5382 5379 5376 5373 5369 5365 5361 5356 5351 5347
5415 5414 5414 5414 5414 5414 5413 5413 5413 5412 5411 5410 5409 5409 5407 5407 5406 5405 5404 5401 5400 5399 5398 5396 5395 5394 5392 5389 5386 5383 5382 5378 5373 5370 5367 5364 5361 5357 5354 5350 5346 5342 5338
5401 5401 5401 5401 5401 5401 5400 5400 5399 5398 5397 5396 5395 5395 5394 5393 5393 5392 5392 5390 5388 5387 5385 5384 5382 5381 5380 5377 5374 5372 5369 5366 5362 5358 5355 5353 5350 5346 5343 5340 5337 5333 5330
5387 5387 5387 5388 5388 5387 5387 5386 5385 5384 5383 5382 5381 5380 5380 5379 5378 5378 5378 5377 5375 5373 5372 5371 5369 5367 5366 5364 5362 5359 5356 5352 5350 5347 5345 5342 5339 5336 5332 5329 5326 5322 5319
5373 5374 5374 5374 5374 5373 5372 5372 5370 5369 5368 5368 5367 5367 5366 5366 5364 5364 5363 5362 5361 5359 5357 5356 5354 5353 5352 5351 5348 5346 5343 5339 5337 5334 5332 5329 5326 5323 5320 5317 5313 5310 5308
5359 5359 5359 5359 5359 5358 5357 5356 5356 5356 5355 5355 5355 5354 5352 5352 5352 5351 5349 5348 5347 5346 5343 5341 5340 5338 5338 5336 5334 5332 5330 5327 5324 5322 5318 5315 5313 5310 5308 5304 5301 5298 5295
5345 5345 5345 5345 5344 5344 5343 5342 5342 5341 5341 5341 5341 5340 5339 5339 5338 5338 5336 5335 5334 5332 5330 5329 5327 5326 5325 5324 5321 5319 5317 5314 5312 5309 5306 5303 5300 5297 5294 5291 5289 5286 5284
5331 5331 5331 5331 5330 5330 5329 5328 5327 5327 5325 5325 5325 5325 5324 5324 5323 5323 5322 5321 5320 5318 5316 5316 5314 5313 5312 5311 5309 5307 5305 5302 5299 5296 5293 5290 5287 5284 5281 5279 5276 5274 5272
5318 5318 5318 5318 5317 5316 5315 5314 5313 5312 5311 5310 5309 5309 5309 5308 5308 5307 5307 5306 5304 5303 5303 5302 5302 5300 5299 5298 5296 5294 5292 5289 5286 5283 5280 5277 5274 5272 5269 5267 5264 5262 5259
5304 5304 5304 5304 5304 5303 5302 5301 5299 5298 5297 5296 5295 5295 5294 5293 5293 5292 5291 5290 5290 5289 5289 5288 5287 5287 5286 5285 5283 5281 5278 5276 5273 5271 5268 5265 5262 5259 5257 5254 5252 5250 5248
5291 5291 5291 5291 5291 5290 5289 5288 5286 5285 5284 5283 5282 5280 5279 5279 5278 5277 5276 5275 5275 5275 5275 5275 5274 5273 5272 5272 5270 5268 5265 5263 5261 5258 5256 5253 5249 5247 5244 5242 5239 5237 5236
5278 5278 5278 5277 5278 5277 5276 5274 5273 5272 5270 5269 5269 5268 5268 5266 5265 5264 5263 5262 5262 5262 5262 5262 5261 5261 5260 5258 5258 5256 5254 5252 5249 5247 5244 5240 5237 5234 5232 5230 5228 5226 5224
5265 5265 5265 5264 5263 5263 5261 5260 5259 5258 5257 5256 5256 5255 5256 5253 5252 5251 5250 5250 5249 5249 5249 5249 5249 5249 5248 5247 5246 5244 5243 5240 5238 5235 5232 5229 5226 5223 5221 5219 5217 5215 5213
5252 5252 5252 5251 5250 5249 5248 5247 5246 5245 5244 5244 5243 5242 5241 5240 5240 5239 5238 5238 5237 5237 5237 5236 5236 5236 5236 5234 5234 5233 5231 5229 5227 5224 5221 5218 5215 5213 5211 5209 5207 5204 5202
5238 5238 5238 5237 5236 5235 5235 5234 5233 5232 5232 5231 5230 5230 5229 5228 5228 5227 5226 5225 5225 5225 5225 5224 5224 5224 5223 5222 5221 5220 5219 5218 5215 5213 5210 5208 5205 5203 5201 5199 5197 5195 5193
5224 5224 5224 5223 5223 5222 5221 5221 5221 5220 5220 5219 5218 5218 5217 5216 5216 5215 5214 5214 5213 5213 5213 5212 5212 5211 5211 5210 5209 5209 5208 5206 5204 5202 5199 5197 5196 5194 5191 5189 5187 5185 5183
5210 5210 5210 5210 5210 5209 5209 5209 5208 5208 5208 5207 5207 5206 5206 5205 5204 5204 5203 5202 5201 5201 5201 5201 5201 5200 5200 5199 5199 5198 5197 5196 5194 5192 5190 5188 5187 5185 5182 5181 5178 5176 5174